EXS92EL LKPR-LOWW

Flight info

Callsign EXS92EL
Flight time 0h 33m
Altitude 17000
Route VOZ DCT LANUX LANUX7W
Aircraft B738/M-SDE2E3FGHIRWXY/LB1

Departure

Time 2026-04-22 20:00
Airport Václav Havel Airport Prague (LKPR)

Arrival

Time 2026-04-22 20:34
Airport Vienna International Airport (LOWW)
Time Latitude Longitude Altitude Speed Heading
2026-04-22 19:05 50.10562 14.26349 1173 ft 0 kts 33°
2026-04-22 19:46 50.10552 14.26339 1172 ft 4 kts 34°
2026-04-22 19:47 50.10529 14.26317 1171 ft 4 kts 23°
2026-04-22 19:47 50.10508 14.26310 1170 ft 4 kts 323°
2026-04-22 19:47 50.10499 14.26326 1168 ft 4 kts 304°
2026-04-22 19:47 50.10478 14.26372 1168 ft 4 kts 304°
2026-04-22 19:48 50.10463 14.26407 1171 ft 4 kts 304°
2026-04-22 19:48 50.10448 14.26442 1168 ft 4 kts 304°
2026-04-22 19:48 50.10433 14.26476 1168 ft 4 kts 304°
2026-04-22 19:48 50.10421 14.26503 1169 ft 0 kts 304°
2026-04-22 19:53 50.10421 14.26502 1173 ft 1 kts 304°
2026-04-22 19:54 50.10434 14.26475 1171 ft 5 kts 305°
2026-04-22 19:54 50.10465 14.26404 1171 ft 10 kts 304°
2026-04-22 19:54 50.10512 14.26298 1170 ft 11 kts 304°
2026-04-22 19:54 50.10537 14.26211 1171 ft 9 kts 282°
2026-04-22 19:55 50.10553 14.26130 1171 ft 8 kts 313°
2026-04-22 19:55 50.10583 14.26065 1172 ft 8 kts 279°
2026-04-22 19:55 50.10557 14.26000 1173 ft 7 kts 217°
2026-04-22 19:55 50.10513 14.25973 1174 ft 7 kts 172°
2026-04-22 19:56 50.10468 14.26042 1175 ft 12 kts 126°
2026-04-22 19:56 50.10402 14.26180 1173 ft 19 kts 126°
2026-04-22 19:56 50.10309 14.26369 1173 ft 25 kts 128°
2026-04-22 19:56 50.10199 14.26596 1174 ft 26 kts 127°
2026-04-22 19:57 50.10100 14.26803 1184 ft 20 kts 127°
2026-04-22 19:57 50.10017 14.26973 1194 ft 19 kts 126°
2026-04-22 19:57 50.09939 14.27135 1199 ft 18 kts 127°
2026-04-22 19:57 50.09869 14.27281 1201 ft 15 kts 127°
2026-04-22 19:58 50.09800 14.27392 1203 ft 14 kts 136°
2026-04-22 19:58 50.09734 14.27494 1205 ft 13 kts 135°
2026-04-22 19:58 50.09671 14.27592 1206 ft 12 kts 135°
2026-04-22 19:58 50.09612 14.27643 1209 ft 9 kts 193°
2026-04-22 19:59 50.09560 14.27591 1212 ft 9 kts 216°
2026-04-22 20:00 50.10462 14.25236 1271 ft 165 kts 307°
2026-04-22 20:00 50.11150 14.23822 2138 ft 163 kts 308°
2026-04-22 20:01 50.11825 14.22421 3107 ft 159 kts 311°
2026-04-22 20:01 50.12495 14.21045 3916 ft 163 kts 311°
2026-04-22 20:01 50.13182 14.19608 4663 ft 169 kts 311°
2026-04-22 20:01 50.13941 14.18035 5037 ft 193 kts 311°
2026-04-22 20:02 50.14777 14.16297 5401 ft 209 kts 310°
2026-04-22 20:02 50.15674 14.14431 5615 ft 221 kts 310°
2026-04-22 20:02 50.16613 14.12475 6184 ft 225 kts 310°
2026-04-22 20:02 50.17562 14.10505 6240 ft 233 kts 310°
2026-04-22 20:03 50.18381 14.08317 6254 ft 241 kts 289°
2026-04-22 20:03 50.18459 14.05524 6277 ft 271 kts 261°
2026-04-22 20:03 50.17640 14.02848 6268 ft 281 kts 231°
2026-04-22 20:03 50.16051 14.01075 6293 ft 286 kts 201°
2026-04-22 20:04 50.14089 14.00683 6270 ft 286 kts 170°
2026-04-22 20:04 50.12289 14.01852 6289 ft 281 kts 140°
2026-04-22 20:04 50.10822 14.03850 6265 ft 281 kts 134°
2026-04-22 20:04 50.09420 14.05960 6273 ft 281 kts 133°
2026-04-22 20:05 50.08024 14.08092 6291 ft 281 kts 133°
2026-04-22 20:05 50.06622 14.10212 6269 ft 282 kts 133°
2026-04-22 20:05 50.05201 14.12349 6774 ft 285 kts 134°
2026-04-22 20:05 50.03775 14.14475 7707 ft 284 kts 133°
2026-04-22 20:06 50.02334 14.16606 8546 ft 287 kts 133°
2026-04-22 20:06 50.00889 14.18741 9307 ft 292 kts 133°
2026-04-22 20:06 49.99397 14.20938 10080 ft 297 kts 133°
2026-04-22 20:06 49.97876 14.23171 10680 ft 308 kts 133°
2026-04-22 20:07 49.96254 14.25553 10881 ft 333 kts 133°
2026-04-22 20:07 49.94509 14.28110 11058 ft 356 kts 133°
2026-04-22 20:07 49.92656 14.30817 11290 ft 375 kts 133°
2026-04-22 20:07 49.90725 14.33622 11806 ft 383 kts 133°
2026-04-22 20:08 49.88777 14.36464 12551 ft 385 kts 132°
2026-04-22 20:08 49.86889 14.39424 13339 ft 386 kts 130°
2026-04-22 20:08 49.84999 14.42412 14087 ft 390 kts 130°
2026-04-22 20:08 49.83061 14.45386 14762 ft 394 kts 131°
2026-04-22 20:09 49.81079 14.48330 15507 ft 396 kts 132°
2026-04-22 20:09 49.79068 14.51246 16284 ft 397 kts 133°
2026-04-22 20:09 49.77051 14.54174 16938 ft 399 kts 132°
2026-04-22 20:09 49.74997 14.57174 17164 ft 413 kts 132°
2026-04-22 20:10 49.72889 14.60255 17280 ft 422 kts 132°
2026-04-22 20:10 49.70736 14.63395 17283 ft 426 kts 132°
2026-04-22 20:10 49.68586 14.66519 17274 ft 424 kts 132°
2026-04-22 20:10 49.66438 14.69634 17276 ft 424 kts 133°
2026-04-22 20:11 49.64288 14.72748 17277 ft 424 kts 133°
2026-04-22 20:11 49.62131 14.75867 17273 ft 425 kts 133°
2026-04-22 20:11 49.59977 14.78981 17277 ft 425 kts 133°
2026-04-22 20:11 49.57817 14.82099 17277 ft 425 kts 133°
2026-04-22 20:12 49.55659 14.85211 17275 ft 425 kts 133°
2026-04-22 20:12 49.53500 14.88320 17270 ft 425 kts 133°
2026-04-22 20:12 49.52067 14.90381 17274 ft 425 kts 133°
2026-04-22 20:12 49.49174 14.94537 17267 ft 425 kts 133°
2026-04-22 20:13 49.47011 14.97641 17267 ft 426 kts 133°
2026-04-22 20:13 49.44846 15.00742 17270 ft 426 kts 133°
2026-04-22 20:13 49.42675 15.03848 17270 ft 426 kts 133°
2026-04-22 20:13 49.40535 15.06907 17275 ft 426 kts 133°
2026-04-22 20:14 49.38360 15.10013 17268 ft 427 kts 133°
2026-04-22 20:14 49.36187 15.13112 17262 ft 427 kts 133°
2026-04-22 20:14 49.34008 15.16213 17270 ft 427 kts 133°
2026-04-22 20:14 49.31827 15.19313 17261 ft 427 kts 133°
2026-04-22 20:15 49.29651 15.22404 17258 ft 426 kts 133°
2026-04-22 20:15 49.27476 15.25488 17259 ft 426 kts 133°
2026-04-22 20:15 49.25300 15.28570 17269 ft 426 kts 133°
2026-04-22 20:15 49.23118 15.31656 17257 ft 427 kts 133°
2026-04-22 20:16 49.20939 15.34737 17257 ft 427 kts 133°
2026-04-22 20:16 49.18758 15.37815 17256 ft 427 kts 133°
2026-04-22 20:16 49.16583 15.40881 17257 ft 427 kts 133°
2026-04-22 20:16 49.14397 15.43959 17256 ft 427 kts 133°
2026-04-22 20:17 49.12206 15.47038 17246 ft 427 kts 133°
2026-04-22 20:17 49.10048 15.50068 17249 ft 427 kts 133°
2026-04-22 20:17 49.07862 15.53134 17243 ft 427 kts 133°
2026-04-22 20:17 49.05865 15.55932 17245 ft 427 kts 133°
2026-04-22 20:18 49.03679 15.58990 17250 ft 427 kts 133°
2026-04-22 20:18 49.01491 15.62048 17251 ft 427 kts 133°
2026-04-22 20:18 48.99300 15.65106 17245 ft 428 kts 133°
2026-04-22 20:18 48.97103 15.68169 17246 ft 428 kts 133°
2026-04-22 20:19 48.94903 15.71232 17239 ft 428 kts 133°
2026-04-22 20:19 48.92705 15.74288 17236 ft 428 kts 133°
2026-04-22 20:19 48.90506 15.77340 17235 ft 428 kts 133°
2026-04-22 20:19 48.88308 15.80389 17248 ft 428 kts 133°
2026-04-22 20:20 48.86104 15.83441 17237 ft 428 kts 133°
2026-04-22 20:20 48.83905 15.86484 17233 ft 428 kts 133°
2026-04-22 20:20 48.81705 15.89523 17235 ft 428 kts 133°
2026-04-22 20:20 48.79505 15.92559 17228 ft 428 kts 133°
2026-04-22 20:21 48.77306 15.95591 17225 ft 427 kts 133°
2026-04-22 20:21 48.75106 15.98618 17230 ft 427 kts 133°
2026-04-22 20:21 48.72906 16.01643 17224 ft 427 kts 133°
2026-04-22 20:21 48.70700 16.04672 17233 ft 427 kts 133°
2026-04-22 20:22 48.68498 16.07694 17236 ft 428 kts 133°
2026-04-22 20:22 48.66294 16.10714 17230 ft 428 kts 133°
2026-04-22 20:22 48.64088 16.13733 17226 ft 428 kts 133°
2026-04-22 20:22 48.61884 16.16744 17218 ft 424 kts 133°
2026-04-22 20:23 48.59722 16.19687 16861 ft 413 kts 133°
2026-04-22 20:23 48.57600 16.22577 16218 ft 409 kts 134°
2026-04-22 20:23 48.55487 16.25454 15591 ft 406 kts 134°
2026-04-22 20:23 48.53429 16.28249 15433 ft 390 kts 134°
2026-04-22 20:24 48.51453 16.30929 15330 ft 375 kts 134°
2026-04-22 20:24 48.49551 16.33505 15236 ft 361 kts 134°
2026-04-22 20:24 48.47718 16.35988 15148 ft 347 kts 133°
2026-04-22 20:24 48.45959 16.38369 14866 ft 335 kts 133°
2026-04-22 20:25 48.44234 16.40711 14291 ft 334 kts 133°
2026-04-22 20:25 48.42517 16.43058 13805 ft 330 kts 133°
2026-04-22 20:25 48.40823 16.45385 13124 ft 330 kts 134°
2026-04-22 20:25 48.39110 16.47698 12472 ft 330 kts 134°
2026-04-22 20:26 48.37397 16.49986 11899 ft 328 kts 135°
2026-04-22 20:26 48.35719 16.52228 11354 ft 326 kts 135°
2026-04-22 20:26 48.34039 16.54476 10907 ft 320 kts 135°
2026-04-22 20:26 48.32397 16.56674 10537 ft 313 kts 135°
2026-04-22 20:27 48.30786 16.58833 10174 ft 307 kts 135°
2026-04-22 20:27 48.29220 16.60932 9888 ft 297 kts 135°
2026-04-22 20:27 48.27688 16.62985 9432 ft 295 kts 135°
2026-04-22 20:27 48.26160 16.65035 8937 ft 295 kts 135°
2026-04-22 20:28 48.24634 16.67081 8484 ft 293 kts 135°
2026-04-22 20:28 48.23121 16.69106 8031 ft 291 kts 135°
2026-04-22 20:28 48.21612 16.71124 7584 ft 289 kts 135°
2026-04-22 20:28 48.20115 16.73128 7168 ft 288 kts 135°
2026-04-22 20:29 48.18621 16.75121 6783 ft 286 kts 135°
2026-04-22 20:29 48.17142 16.77093 6452 ft 284 kts 135°
2026-04-22 20:29 48.15668 16.79061 6118 ft 284 kts 135°
2026-04-22 20:29 48.14191 16.81026 5820 ft 275 kts 135°
2026-04-22 20:30 48.12644 16.82626 5422 ft 270 kts 158°
2026-04-22 20:30 48.10834 16.82992 5094 ft 260 kts 189°
2026-04-22 20:30 48.09195 16.82047 4745 ft 249 kts 220°
2026-04-22 20:30 48.08144 16.80162 4428 ft 232 kts 251°
2026-04-22 20:31 48.07839 16.77922 4100 ft 213 kts 273°
2026-04-22 20:31 48.07795 16.75749 3807 ft 205 kts 275°
2026-04-22 20:31 48.07758 16.73666 3466 ft 197 kts 275°
2026-04-22 20:31 48.07723 16.71632 3169 ft 196 kts 275°
2026-04-22 20:32 48.07695 16.69624 2798 ft 191 kts 277°
2026-04-22 20:32 48.07789 16.67685 2415 ft 185 kts 286°
2026-04-22 20:32 48.08132 16.65865 1951 ft 181 kts 296°
2026-04-22 20:32 48.08669 16.64234 1633 ft 171 kts 306°
2026-04-22 20:33 48.09237 16.62681 1292 ft 169 kts 298°
2026-04-22 20:33 48.09731 16.61161 1101 ft 153 kts 297°
2026-04-22 20:33 48.10171 16.59800 896 ft 142 kts 298°
2026-04-22 20:33 48.10614 16.58456 739 ft 144 kts 297°
2026-04-22 20:34 48.11050 16.57119 620 ft 140 kts 297°
2026-04-22 20:34 48.11401 16.56040 616 ft 84 kts 296°
2026-04-22 20:34 48.11532 16.55639 616 ft 46 kts 296°
2026-04-22 20:34 48.11660 16.55345 608 ft 28 kts 314°
2026-04-22 20:35 48.11812 16.55149 608 ft 13 kts 340°
2026-04-22 20:35 48.11863 16.55142 608 ft 10 kts 18°
2026-04-22 20:35 48.11879 16.55214 612 ft 8 kts 109°
2026-04-22 20:35 48.11856 16.55288 613 ft 8 kts 116°
2026-04-22 20:36 48.11833 16.55359 611 ft 7 kts 110°
2026-04-22 20:36 48.11848 16.55420 619 ft 6 kts 33°
2026-04-22 20:36 48.11891 16.55435 608 ft 6 kts
2026-04-22 20:36 48.11932 16.55451 608 ft 6 kts 24°
2026-04-22 20:37 48.11970 16.55477 616 ft 6 kts 25°
2026-04-22 20:37 48.11992 16.55521 619 ft 6 kts 87°
2026-04-22 20:37 48.11987 16.55571 615 ft 3 kts 101°
2026-04-22 20:37 48.11985 16.55586 608 ft 1 kts 100°
2026-04-22 20:38 48.11985 16.55587 608 ft 0 kts 100°